"FILENAME","TIMESTAMP","SAMPLE","STATION","LATITUDE","LONGITUDE","SAMPLE_DATE","SAMPLE_TIME","DEPTH","DEPTH_UNITS","TOTALQ","TOTALV","TOTALU","FECALQ","FECALV","FECALU","ENTEROQ","ENTEROV","ENTEROU",
"201511COLISBOO.csv","2015DEC10132138","1511039220","S9",  32.67700,-117.17800,"20151103",831,,"m","e",10,"CFU/100 mL","e",10,"CFU/100 mL","<",2,"CFU/100 mL",
"201511COLISBOO.csv","2015DEC10132138","1511039221","S8",  32.63680,-117.14400,"20151103",850,,"m","e",2,"CFU/100 mL","<",2,"CFU/100 mL","<",2,"CFU/100 mL",
"201511COLISBOO.csv","2015DEC10132138","1511039222","S5",  32.55780,-117.13100,"20151103",921,,"m","e",40,"CFU/100 mL","e",6,"CFU/100 mL","<",2,"CFU/100 mL",
"201511COLISBOO.csv","2015DEC10132138","1511039223","S11",  32.56130,-117.13200,"20151103",927,,"m","e",20,"CFU/100 mL","e",2,"CFU/100 mL","e",2,"CFU/100 mL",
"201511COLISBOO.csv","2015DEC10132138","1511039224","S6",  32.56630,-117.13300,"20151103",932,,"m","<",20,"CFU/100 mL","e",4,"CFU/100 mL","e",2,"CFU/100 mL",
"201511COLISBOO.csv","2015DEC10132138","1511039225","S12",  32.58570,-117.13300,"20151103",946,,"m","<",20,"CFU/100 mL","<",2,"CFU/100 mL","<",2,"CFU/100 mL",
"201511COLISBOO.csv","2015DEC10132138","1511039226","S4",  32.53530,-117.12500,"20151103",1110,,"m","<",20,"CFU/100 mL","e",2,"CFU/100 mL","<",2,"CFU/100 mL",
"201511COLISBOO.csv","2015DEC10132138","1511039227","S10",  32.54330,-117.12500,"20151103",1115,,"m","e",8,"CFU/100 mL","<",2,"CFU/100 mL","<",2,"CFU/100 mL",
"201511COLISBOO.csv","2015DEC10132138","1511039540","S3",  32.52570,-117.12400,"20151103",1215,,"m","<",2,"CFU/100 mL","<",2,"CFU/100 mL","e",4,"CFU/100 mL",
"201511COLISBOO.csv","2015DEC10132138","1511039541","S2",  32.49870,-117.12300,"20151103",1255,,"m","e",800,"CFU/100 mL","",82,"CFU/100 mL","",440,"CFU/100 mL",
"201511COLISBOO.csv","2015DEC10132138","1511039542","S0",  32.41913,-117.09728,"20151103",1135,,"m","e",200,"CFU/100 mL","e",12,"CFU/100 mL","e",100,"CFU/100 mL",
"201511COLISBOO.csv","2015DEC10132138","1511048867","I19",  32.53633,-117.12900,"20151107",1113,2,"m","e",80,"CFU/100 mL","e",12,"CFU/100 mL","<",2,"CFU/100 mL",
"201511COLISBOO.csv","2015DEC10132138","1511048868","I19",  32.53633,-117.12900,"20151107",1113,6,"m","e",120,"CFU/100 mL","e",12,"CFU/100 mL","<",2,"CFU/100 mL",
"201511COLISBOO.csv","2015DEC10132138","1511048869","I19",  32.53633,-117.12900,"20151107",1113,11,"m","e",220,"CFU/100 mL","e",36,"CFU/100 mL","e",6,"CFU/100 mL",
"201511COLISBOO.csv","2015DEC10132138","1511048870","I24",  32.55667,-117.14500,"20151107",1150,2,"m","<",2,"CFU/100 mL","<",2,"CFU/100 mL","<",2,"CFU/100 mL",
"201511COLISBOO.csv","2015DEC10132138","1511048871","I24",  32.55667,-117.14500,"20151107",1150,6,"m","e",4,"CFU/100 mL","<",2,"CFU/100 mL","<",2,"CFU/100 mL",
"201511COLISBOO.csv","2015DEC10132138","1511048872","I24",  32.55667,-117.14500,"20151107",1150,11,"m","<",2,"CFU/100 mL","<",2,"CFU/100 mL","<",2,"CFU/100 mL",
"201511COLISBOO.csv","2015DEC10132138","1511048873","I25",  32.56117,-117.14800,"20151107",1203,2,"m","<",2,"CFU/100 mL","<",2,"CFU/100 mL","<",2,"CFU/100 mL",
"201511COLISBOO.csv","2015DEC10132138","1511048874","I25",  32.56117,-117.14800,"20151107",1203,6,"m","<",2,"CFU/100 mL","<",2,"CFU/100 mL","<",2,"CFU/100 mL",
"201511COLISBOO.csv","2015DEC10132138","1511048875","I25",  32.56117,-117.14800,"20151107",1203,9,"m","<",2,"CFU/100 mL","<",2,"CFU/100 mL","<",2,"CFU/100 mL",
"201511COLISBOO.csv","2015DEC10132138","1511048876","I26",  32.57450,-117.14700,"20151107",1248,2,"m","<",2,"CFU/100 mL","<",2,"CFU/100 mL","<",2,"CFU/100 mL",
"201511COLISBOO.csv","2015DEC10132138","1511048877","I26",  32.57450,-117.14700,"20151107",1248,6,"m","<",2,"CFU/100 mL","<",2,"CFU/100 mL","<",2,"CFU/100 mL",
"201511COLISBOO.csv","2015DEC10132138","1511048878","I26",  32.57450,-117.14700,"20151107",1248,9,"m","<",2,"CFU/100 mL","<",2,"CFU/100 mL","<",2,"CFU/100 mL",
"201511COLISBOO.csv","2015DEC10132138","1511048879","I32",  32.59467,-117.13800,"20151107",1304,2,"m","<",2,"CFU/100 mL","<",2,"CFU/100 mL","<",2,"CFU/100 mL",
"201511COLISBOO.csv","2015DEC10132138","1511048880","I32",  32.59467,-117.13800,"20151107",1304,6,"m","<",2,"CFU/100 mL","<",2,"CFU/100 mL","<",2,"CFU/100 mL",
"201511COLISBOO.csv","2015DEC10132138","1511048881","I32",  32.59467,-117.13800,"20151107",1304,9,"m","e",2,"CFU/100 mL","<",2,"CFU/100 mL","<",2,"CFU/100 mL",
"201511COLISBOO.csv","2015DEC10132138","1511048882","I39",  32.57233,-117.16750,"20151107",1045,2,"m","<",2,"CFU/100 mL","<",20,"CFU/100 mL","<",2,"CFU/100 mL",
"201511COLISBOO.csv","2015DEC10132138","1511048883","I39",  32.57233,-117.16750,"20151107",1045,12,"m","<",2,"CFU/100 mL","<",2,"CFU/100 mL","<",2,"CFU/100 mL",
"201511COLISBOO.csv","2015DEC10132138","1511048884","I39",  32.57233,-117.16750,"20151107",1045,18,"m","<",2,"CFU/100 mL","<",2,"CFU/100 mL","<",2,"CFU/100 mL",
"201511COLISBOO.csv","2015DEC10132138","1511048885","I40",  32.55383,-117.13617,"20151107",1136,2,"m","e",4,"CFU/100 mL","<",2,"CFU/100 mL","<",2,"CFU/100 mL",
"201511COLISBOO.csv","2015DEC10132138","1511048886","I40",  32.55383,-117.13617,"20151107",1136,6,"m","e",300,"CFU/100 mL","e",18,"CFU/100 mL","<",2,"CFU/100 mL",
"201511COLISBOO.csv","2015DEC10132138","1511048887","I40",  32.55383,-117.13617,"20151107",1136,9,"m","",680,"CFU/100 mL","",110,"CFU/100 mL","e",10,"CFU/100 mL",
"201511COLISBOO.csv","2015DEC10132138","1511099290","I10",  32.51667,-117.15600,"20151109",1046,2,"m","<",2,"CFU/100 mL","<",2,"CFU/100 mL","<",2,"CFU/100 mL",
"201511COLISBOO.csv","2015DEC10132138","1511099291","I10",  32.51667,-117.15600,"20151109",1046,12,"m","<",2,"CFU/100 mL","<",2,"CFU/100 mL","<",2,"CFU/100 mL",
"201511COLISBOO.csv","2015DEC10132138","1511099292","I10",  32.51667,-117.15600,"20151109",1046,18,"m","<",2,"CFU/100 mL","<",2,"CFU/100 mL","<",2,"CFU/100 mL",
"201511COLISBOO.csv","2015DEC10132138","1511099293","I11",  32.51333,-117.13700,"20151109",1034,2,"m","<",2,"CFU/100 mL","<",2,"CFU/100 mL","<",2,"CFU/100 mL",
"201511COLISBOO.csv","2015DEC10132138","1511099294","I11",  32.51333,-117.13700,"20151109",1034,6,"m","<",2,"CFU/100 mL","<",2,"CFU/100 mL","<",2,"CFU/100 mL",
"201511COLISBOO.csv","2015DEC10132138","1511099295","I11",  32.51333,-117.13700,"20151109",1034,11,"m","<",2,"CFU/100 mL","<",2,"CFU/100 mL","<",2,"CFU/100 mL",
"201511COLISBOO.csv","2015DEC10132138","1511099296","I13",  32.53750,-117.21200,"20151109",1127,2,"m","<",2,"CFU/100 mL","<",2,"CFU/100 mL","<",2,"CFU/100 mL",
"201511COLISBOO.csv","2015DEC10132138","1511099297","I13",  32.53750,-117.21200,"20151109",1127,18,"m","<",2,"CFU/100 mL","<",2,"CFU/100 mL","<",2,"CFU/100 mL",
"201511COLISBOO.csv","2015DEC10132138","1511099298","I13",  32.53750,-117.21200,"20151109",1127,37,"m","<",2,"CFU/100 mL","<",2,"CFU/100 mL","<",2,"CFU/100 mL",
"201511COLISBOO.csv","2015DEC10132138","1511099299","I20",  32.55700,-117.25700,"20151109",809,2,"m","<",2,"CFU/100 mL","<",2,"CFU/100 mL","e",20,"CFU/100 mL",
"201511COLISBOO.csv","2015DEC10132138","1511099300","I20",  32.55700,-117.25700,"20151109",809,18,"m","<",2,"CFU/100 mL","<",2,"CFU/100 mL","e",2,"CFU/100 mL",
"201511COLISBOO.csv","2015DEC10132138","1511099301","I20",  32.55700,-117.25700,"20151109",809,55,"m","<",2,"CFU/100 mL","<",2,"CFU/100 mL","<",2,"CFU/100 mL",
"201511COLISBOO.csv","2015DEC10132138","1511099302","I21",  32.56067,-117.22700,"20151109",1142,2,"m","<",2,"CFU/100 mL","<",2,"CFU/100 mL","<",2,"CFU/100 mL",
"201511COLISBOO.csv","2015DEC10132138","1511099303","I21",  32.56067,-117.22700,"20151109",1142,18,"m","<",2,"CFU/100 mL","<",2,"CFU/100 mL","<",2,"CFU/100 mL",
"201511COLISBOO.csv","2015DEC10132138","1511099304","I21",  32.56067,-117.22700,"20151109",1142,37,"m","<",2,"CFU/100 mL","<",2,"CFU/100 mL","<",2,"CFU/100 mL",
"201511COLISBOO.csv","2015DEC10132138","1511099305","I3",  32.46700,-117.16800,"20151109",940,2,"m","<",2,"CFU/100 mL","<",2,"CFU/100 mL","e",2,"CFU/100 mL",
"201511COLISBOO.csv","2015DEC10132138","1511099306","I3",  32.46700,-117.16800,"20151109",940,18,"m","<",2,"CFU/100 mL","<",2,"CFU/100 mL","<",2,"CFU/100 mL",
"201511COLISBOO.csv","2015DEC10132138","1511099307","I3",  32.46700,-117.16800,"20151109",940,27,"m","<",2,"CFU/100 mL","<",2,"CFU/100 mL","<",2,"CFU/100 mL",
"201511COLISBOO.csv","2015DEC10132138","1511099308","I5",  32.47167,-117.13000,"20151109",1003,2,"m","<",2,"CFU/100 mL","<",2,"CFU/100 mL","<",2,"CFU/100 mL",
"201511COLISBOO.csv","2015DEC10132138","1511099309","I5",  32.47167,-117.13000,"20151109",1003,6,"m","<",2,"CFU/100 mL","<",2,"CFU/100 mL","<",2,"CFU/100 mL",
"201511COLISBOO.csv","2015DEC10132138","1511099310","I5",  32.47167,-117.13000,"20151109",1003,11,"m","e",2,"CFU/100 mL","<",2,"CFU/100 mL","<",2,"CFU/100 mL",
"201511COLISBOO.csv","2015DEC10132138","1511099311","I7",  32.51667,-117.25300,"20151109",831,2,"m","<",2,"CFU/100 mL","<",2,"CFU/100 mL","e",2,"CFU/100 mL",
"201511COLISBOO.csv","2015DEC10132138","1511099312","I7",  32.51667,-117.25300,"20151109",831,18,"m","<",2,"CFU/100 mL","<",2,"CFU/100 mL","<",2,"CFU/100 mL",
"201511COLISBOO.csv","2015DEC10132138","1511099313","I7",  32.51667,-117.25300,"20151109",831,52,"m","e",2,"CFU/100 mL","<",2,"CFU/100 mL","e",6,"CFU/100 mL",
"201511COLISBOO.csv","2015DEC10132138","1511099314","I8",  32.51667,-117.20200,"20151109",1112,2,"m","<",2,"CFU/100 mL","<",2,"CFU/100 mL","<",2,"CFU/100 mL",
"201511COLISBOO.csv","2015DEC10132138","1511099315","I8",  32.51667,-117.20200,"20151109",1112,18,"m","<",2,"CFU/100 mL","<",2,"CFU/100 mL","<",2,"CFU/100 mL",
"201511COLISBOO.csv","2015DEC10132138","1511099316","I8",  32.51667,-117.20200,"20151109",1112,37,"m","<",2,"CFU/100 mL","<",2,"CFU/100 mL","<",2,"CFU/100 mL",
"201511COLISBOO.csv","2015DEC10132138","1511099317","I9",  32.51167,-117.17900,"20151109",1059,2,"m","<",2,"CFU/100 mL","<",2,"CFU/100 mL","<",2,"CFU/100 mL",
"201511COLISBOO.csv","2015DEC10132138","1511099318","I9",  32.51167,-117.17900,"20151109",1059,18,"m","<",2,"CFU/100 mL","<",2,"CFU/100 mL","<",2,"CFU/100 mL",
"201511COLISBOO.csv","2015DEC10132138","1511099319","I9",  32.51167,-117.17900,"20151109",1059,27,"m","e",2,"CFU/100 mL","e",2,"CFU/100 mL","<",2,"CFU/100 mL",
"201511COLISBOO.csv","2015DEC10132138","1511109366","I12",  32.53283,-117.18300,"20151113",1042,2,"m","<",2,"CFU/100 mL","<",2,"CFU/100 mL","<",2,"CFU/100 mL",
"201511COLISBOO.csv","2015DEC10132138","1511109367","I12",  32.53283,-117.18300,"20151113",1042,18,"m","e",2,"CFU/100 mL","<",2,"CFU/100 mL","<",2,"CFU/100 mL",
"201511COLISBOO.csv","2015DEC10132138","1511109368","I12",  32.53283,-117.18300,"20151113",1042,27,"m","e",2,"CFU/100 mL","<",2,"CFU/100 mL","<",2,"CFU/100 mL",
"201511COLISBOO.csv","2015DEC10132138","1511109369","I14",  32.54300,-117.18400,"20151113",1124,2,"m","<",2,"CFU/100 mL","<",2,"CFU/100 mL","<",2,"CFU/100 mL",
"201511COLISBOO.csv","2015DEC10132138","1511109370","I14",  32.54300,-117.18400,"20151113",1124,18,"m","<",2,"CFU/100 mL","<",2,"CFU/100 mL","<",2,"CFU/100 mL",
"201511COLISBOO.csv","2015DEC10132138","1511109371","I14",  32.54300,-117.18400,"20151113",1124,27,"m","<",2,"CFU/100 mL","<",2,"CFU/100 mL","<",2,"CFU/100 mL",
"201511COLISBOO.csv","2015DEC10132138","1511109372","I16",  32.53783,-117.18300,"20151113",1033,2,"m","<",2,"CFU/100 mL","<",2,"CFU/100 mL","<",2,"CFU/100 mL",
"201511COLISBOO.csv","2015DEC10132138","1511109373","I16",  32.53783,-117.18300,"20151113",1033,18,"m","e",2,"CFU/100 mL","<",2,"CFU/100 mL","<",2,"CFU/100 mL",
"201511COLISBOO.csv","2015DEC10132138","1511109374","I16",  32.53783,-117.18300,"20151113",1033,27,"m","<",2,"CFU/100 mL","<",2,"CFU/100 mL","<",2,"CFU/100 mL",
"201511COLISBOO.csv","2015DEC10132138","1511109375","I18",  32.53617,-117.16100,"20151113",1012,2,"m","<",2,"CFU/100 mL","<",2,"CFU/100 mL","<",2,"CFU/100 mL",
"201511COLISBOO.csv","2015DEC10132138","1511109376","I18",  32.53617,-117.16100,"20151113",1012,12,"m","<",2,"CFU/100 mL","<",2,"CFU/100 mL","<",2,"CFU/100 mL",
"201511COLISBOO.csv","2015DEC10132138","1511109377","I18",  32.53617,-117.16100,"20151113",1012,18,"m","<",2,"CFU/100 mL","<",2,"CFU/100 mL","<",2,"CFU/100 mL",
"201511COLISBOO.csv","2015DEC10132138","1511109378","I19",  32.53633,-117.12900,"20151113",957,2,"m","e",10,"CFU/100 mL","e",4,"CFU/100 mL","<",2,"CFU/100 mL",
"201511COLISBOO.csv","2015DEC10132138","1511109379","I19",  32.53633,-117.12900,"20151113",957,6,"m","e",20,"CFU/100 mL","e",4,"CFU/100 mL","<",2,"CFU/100 mL",
"201511COLISBOO.csv","2015DEC10132138","1511109380","I19",  32.53633,-117.12900,"20151113",957,11,"m","e",40,"CFU/100 mL","e",4,"CFU/100 mL","<",2,"CFU/100 mL",
"201511COLISBOO.csv","2015DEC10132138","1511109381","I22",  32.55333,-117.18500,"20151113",1138,2,"m","<",2,"CFU/100 mL","<",2,"CFU/100 mL","<",2,"CFU/100 mL",
"201511COLISBOO.csv","2015DEC10132138","1511109382","I22",  32.55333,-117.18500,"20151113",1138,18,"m","<",2,"CFU/100 mL","<",2,"CFU/100 mL","<",2,"CFU/100 mL",
"201511COLISBOO.csv","2015DEC10132138","1511109383","I22",  32.55333,-117.18500,"20151113",1138,27,"m","<",2,"CFU/100 mL","<",2,"CFU/100 mL","<",2,"CFU/100 mL",
"201511COLISBOO.csv","2015DEC10132138","1511109384","I23",  32.55083,-117.16500,"20151113",1150,2,"m","<",2,"CFU/100 mL","<",2,"CFU/100 mL","<",2,"CFU/100 mL",
"201511COLISBOO.csv","2015DEC10132138","1511109385","I23",  32.55083,-117.16500,"20151113",1150,12,"m","<",2,"CFU/100 mL","e",2,"CFU/100 mL","<",2,"CFU/100 mL",
"201511COLISBOO.csv","2015DEC10132138","1511109386","I23",  32.55083,-117.16500,"20151113",1150,18,"m","<",2,"CFU/100 mL","<",2,"CFU/100 mL","<",2,"CFU/100 mL",
"201511COLISBOO.csv","2015DEC10132138","1511109387","I24",  32.55667,-117.14500,"20151113",929,2,"m","<",2,"CFU/100 mL","<",2,"CFU/100 mL","<",2,"CFU/100 mL",
"201511COLISBOO.csv","2015DEC10132138","1511109388","I24",  32.55667,-117.14500,"20151113",929,6,"m","e",2,"CFU/100 mL","e",2,"CFU/100 mL","<",2,"CFU/100 mL",
"201511COLISBOO.csv","2015DEC10132138","1511109389","I24",  32.55667,-117.14500,"20151113",929,11,"m","e",2,"CFU/100 mL","<",2,"CFU/100 mL","<",2,"CFU/100 mL",
"201511COLISBOO.csv","2015DEC10132138","1511109390","I25",  32.56117,-117.14800,"20151113",922,2,"m","<",2,"CFU/100 mL","<",2,"CFU/100 mL","<",2,"CFU/100 mL",
"201511COLISBOO.csv","2015DEC10132138","1511109391","I25",  32.56117,-117.14800,"20151113",922,6,"m","<",2,"CFU/100 mL","<",2,"CFU/100 mL","<",2,"CFU/100 mL",
"201511COLISBOO.csv","2015DEC10132138","1511109392","I25",  32.56117,-117.14800,"20151113",922,9,"m","<",2,"CFU/100 mL","<",2,"CFU/100 mL","<",2,"CFU/100 mL",
"201511COLISBOO.csv","2015DEC10132138","1511109393","I26",  32.57450,-117.14700,"20151113",909,2,"m","<",2,"CFU/100 mL","<",2,"CFU/100 mL","<",2,"CFU/100 mL",
"201511COLISBOO.csv","2015DEC10132138","1511109394","I26",  32.57450,-117.14700,"20151113",909,6,"m","<",2,"CFU/100 mL","<",2,"CFU/100 mL","<",2,"CFU/100 mL",
"201511COLISBOO.csv","2015DEC10132138","1511109395","I26",  32.57450,-117.14700,"20151113",909,9,"m","<",2,"CFU/100 mL","<",2,"CFU/100 mL","<",2,"CFU/100 mL",
"201511COLISBOO.csv","2015DEC10132138","1511109396","I39",  32.57233,-117.16750,"20151113",852,2,"m","e",2,"CFU/100 mL","<",2,"CFU/100 mL","<",2,"CFU/100 mL",
"201511COLISBOO.csv","2015DEC10132138","1511109397","I39",  32.57233,-117.16750,"20151113",852,12,"m","<",2,"CFU/100 mL","<",2,"CFU/100 mL","<",2,"CFU/100 mL",
"201511COLISBOO.csv","2015DEC10132138","1511109398","I39",  32.57233,-117.16750,"20151113",852,18,"m","<",2,"CFU/100 mL","<",2,"CFU/100 mL","<",2,"CFU/100 mL",
"201511COLISBOO.csv","2015DEC10132138","1511109399","I40",  32.55383,-117.13617,"20151113",946,2,"m","e",2,"CFU/100 mL","e",2,"CFU/100 mL","<",2,"CFU/100 mL",
"201511COLISBOO.csv","2015DEC10132138","1511109400","I40",  32.55383,-117.13617,"20151113",946,6,"m","e",80,"CFU/100 mL","e",34,"CFU/100 mL","e",4,"CFU/100 mL",
"201511COLISBOO.csv","2015DEC10132138","1511109401","I40",  32.55383,-117.13617,"20151113",946,9,"m","e",36,"CFU/100 mL","<",2,"CFU/100 mL","e",4,"CFU/100 mL",
"201511COLISBOO.csv","2015DEC10132138","1511109660","S4",  32.53530,-117.12500,"20151110",801,,"m","<",20,"CFU/100 mL","<",2,"CFU/100 mL","e",10,"CFU/100 mL",
"201511COLISBOO.csv","2015DEC10132138","1511109661","S10",  32.54330,-117.12500,"20151110",808,,"m","e",80,"CFU/100 mL","",40,"CFU/100 mL","",46,"CFU/100 mL",
"201511COLISBOO.csv","2015DEC10132138","1511109662","S12",  32.58570,-117.13300,"20151110",903,,"m","e",20,"CFU/100 mL","e",6,"CFU/100 mL","e",26,"CFU/100 mL",
"201511COLISBOO.csv","2015DEC10132138","1511109663","S6",  32.56630,-117.13300,"20151110",923,,"m","<",200,"CFU/100 mL","e",8,"CFU/100 mL","e",24,"CFU/100 mL",
"201511COLISBOO.csv","2015DEC10132138","1511109664","S11",  32.56130,-117.13200,"20151110",929,,"m","<",20,"CFU/100 mL","e",4,"CFU/100 mL","e",18,"CFU/100 mL",
"201511COLISBOO.csv","2015DEC10132138","1511109665","S5",  32.55780,-117.13100,"20151110",938,,"m","<",20,"CFU/100 mL","e",6,"CFU/100 mL","e",8,"CFU/100 mL",
"201511COLISBOO.csv","2015DEC10132138","1511109666","S8",  32.63680,-117.14400,"20151110",1049,,"m","<",20,"CFU/100 mL","e",2,"CFU/100 mL","e",14,"CFU/100 mL",
"201511COLISBOO.csv","2015DEC10132138","1511109667","S9",  32.67700,-117.17800,"20151110",1112,,"m","e",20,"CFU/100 mL","e",6,"CFU/100 mL","e",6,"CFU/100 mL",
"201511COLISBOO.csv","2015DEC10132138","1511109680","S3",  32.52570,-117.12400,"20151110",915,,"m","<",20,"CFU/100 mL","e",8,"CFU/100 mL","e",12,"CFU/100 mL",
"201511COLISBOO.csv","2015DEC10132138","1511109681","S2",  32.49870,-117.12300,"20151110",950,,"m","e",20,"CFU/100 mL","e",4,"CFU/100 mL","e",12,"CFU/100 mL",
"201511COLISBOO.csv","2015DEC10132138","1511109682","S0",  32.41913,-117.09728,"20151110",1130,,"m","",440,"CFU/100 mL","",50,"CFU/100 mL","",82,"CFU/100 mL",
"201511COLISBOO.csv","2015DEC10132138","1511139451","I30",  32.59533,-117.19700,"20151112",1108,2,"m","<",2,"CFU/100 mL","<",2,"CFU/100 mL","<",2,"CFU/100 mL",
"201511COLISBOO.csv","2015DEC10132138","1511139452","I30",  32.59533,-117.19700,"20151112",1108,18,"m","<",2,"CFU/100 mL","<",2,"CFU/100 mL","<",2,"CFU/100 mL",
"201511COLISBOO.csv","2015DEC10132138","1511139453","I30",  32.59533,-117.19700,"20151112",1108,27,"m","e",2,"CFU/100 mL","<",2,"CFU/100 mL","<",2,"CFU/100 mL",
"201511COLISBOO.csv","2015DEC10132138","1511139454","I32",  32.59467,-117.13800,"20151112",1136,2,"m","<",2,"CFU/100 mL","<",2,"CFU/100 mL","<",2,"CFU/100 mL",
"201511COLISBOO.csv","2015DEC10132138","1511139455","I32",  32.59467,-117.13800,"20151112",1136,6,"m","<",2,"CFU/100 mL","<",2,"CFU/100 mL","<",2,"CFU/100 mL",
"201511COLISBOO.csv","2015DEC10132138","1511139456","I32",  32.59467,-117.13800,"20151112",1136,9,"m","<",2,"CFU/100 mL","<",2,"CFU/100 mL","<",2,"CFU/100 mL",
"201511COLISBOO.csv","2015DEC10132138","1511139457","I33",  32.62383,-117.23700,"20151112",1020,2,"m","<",2,"CFU/100 mL","<",2,"CFU/100 mL","<",2,"CFU/100 mL",
"201511COLISBOO.csv","2015DEC10132138","1511139458","I33",  32.62383,-117.23700,"20151112",1020,18,"m","e",4,"CFU/100 mL","<",2,"CFU/100 mL","<",2,"CFU/100 mL",
"201511COLISBOO.csv","2015DEC10132138","1511139459","I33",  32.62383,-117.23700,"20151112",1020,27,"m","<",2,"CFU/100 mL","<",2,"CFU/100 mL","<",2,"CFU/100 mL",
"201511COLISBOO.csv","2015DEC10132138","1511139460","I36",  32.63917,-117.15400,"20151112",1157,2,"m","<",2,"CFU/100 mL","<",2,"CFU/100 mL","<",2,"CFU/100 mL",
"201511COLISBOO.csv","2015DEC10132138","1511139461","I36",  32.63917,-117.15400,"20151112",1157,6,"m","e",2,"CFU/100 mL","<",2,"CFU/100 mL","<",2,"CFU/100 mL",
"201511COLISBOO.csv","2015DEC10132138","1511139462","I36",  32.63917,-117.15400,"20151112",1157,11,"m","<",20,"CFU/100 mL","e",2,"CFU/100 mL","<",2,"CFU/100 mL",
"201511COLISBOO.csv","2015DEC10132138","1511139463","I37",  32.64800,-117.21633,"20151112",956,2,"m","<",2,"CFU/100 mL","<",2,"CFU/100 mL","<",2,"CFU/100 mL",
"201511COLISBOO.csv","2015DEC10132138","1511139464","I37",  32.64800,-117.21633,"20151112",956,6,"m","<",2,"CFU/100 mL","<",2,"CFU/100 mL","<",2,"CFU/100 mL",
"201511COLISBOO.csv","2015DEC10132138","1511139465","I37",  32.64800,-117.21633,"20151112",956,11,"m","<",2,"CFU/100 mL","<",2,"CFU/100 mL","<",2,"CFU/100 mL",
"201511COLISBOO.csv","2015DEC10132138","1511139466","I38",  32.66883,-117.18667,"20151112",1225,2,"m","<",2,"CFU/100 mL","<",2,"CFU/100 mL","<",2,"CFU/100 mL",
"201511COLISBOO.csv","2015DEC10132138","1511139467","I38",  32.66883,-117.18667,"20151112",1225,6,"m","e",4,"CFU/100 mL","<",2,"CFU/100 mL","<",2,"CFU/100 mL",
"201511COLISBOO.csv","2015DEC10132138","1511139468","I38",  32.66883,-117.18667,"20151112",1225,11,"m","e",14,"CFU/100 mL","e",2,"CFU/100 mL","<",2,"CFU/100 mL",
"201511COLISBOO.csv","2015DEC10132138","1511171040","S4",  32.53530,-117.12500,"20151117",935,,"m","e",2200,"CFU/100 mL","e",280,"CFU/100 mL","e",120,"CFU/100 mL",
"201511COLISBOO.csv","2015DEC10132138","1511171041","S10",  32.54330,-117.12500,"20151117",940,,"m","e",180,"CFU/100 mL","e",20,"CFU/100 mL","e",8,"CFU/100 mL",
"201511COLISBOO.csv","2015DEC10132138","1511171042","S12",  32.58570,-117.13300,"20151117",1041,,"m","<",20,"CFU/100 mL","e",2,"CFU/100 mL","<",2,"CFU/100 mL",
"201511COLISBOO.csv","2015DEC10132138","1511171043","S6",  32.56630,-117.13300,"20151117",1101,,"m","<",20,"CFU/100 mL","e",6,"CFU/100 mL","e",2,"CFU/100 mL",
"201511COLISBOO.csv","2015DEC10132138","1511171044","S11",  32.56130,-117.13200,"20151117",1105,,"m","<",20,"CFU/100 mL","<",2,"CFU/100 mL","<",2,"CFU/100 mL",
"201511COLISBOO.csv","2015DEC10132138","1511171045","S5",  32.55780,-117.13100,"20151117",1112,,"m","<",20,"CFU/100 mL","<",2,"CFU/100 mL","e",2,"CFU/100 mL",
"201511COLISBOO.csv","2015DEC10132138","1511171046","S8",  32.63680,-117.14400,"20151117",1149,,"m","<",2,"CFU/100 mL","<",2,"CFU/100 mL","<",2,"CFU/100 mL",
"201511COLISBOO.csv","2015DEC10132138","1511171047","S9",  32.67700,-117.17800,"20151117",1214,,"m","e",120,"CFU/100 mL","e",2,"CFU/100 mL","<",2,"CFU/100 mL",
"201511COLISBOO.csv","2015DEC10132138","1511171200","S3",  32.52570,-117.12400,"20151117",1135,,"m","e",800,"CFU/100 mL","e",160,"CFU/100 mL","e",28,"CFU/100 mL",
"201511COLISBOO.csv","2015DEC10132138","1511171201","S2",  32.49870,-117.12300,"20151117",1210,,"m","e",1000,"CFU/100 mL","",120,"CFU/100 mL","",54,"CFU/100 mL",
"201511COLISBOO.csv","2015DEC10132138","1511171202","S0",  32.41913,-117.09728,"20151117",1055,,"m","e",360,"CFU/100 mL","e",60,"CFU/100 mL","",50,"CFU/100 mL",
"201511COLISBOO.csv","2015DEC10132138","1511191128","S4",  32.53530,-117.12500,"20151119",740,,"m","e",200,"CFU/100 mL","",84,"CFU/100 mL","e",32,"CFU/100 mL",
"201511COLISBOO.csv","2015DEC10132138","1511209724","I19",  32.53633,-117.12900,"20151120",1110,2,"m","<",20,"CFU/100 mL","<",2,"CFU/100 mL","<",2,"CFU/100 mL",
"201511COLISBOO.csv","2015DEC10132138","1511209725","I19",  32.53633,-117.12900,"20151120",1110,6,"m","e",100,"CFU/100 mL","<",2,"CFU/100 mL","<",2,"CFU/100 mL",
"201511COLISBOO.csv","2015DEC10132138","1511209726","I19",  32.53633,-117.12900,"20151120",1110,11,"m","e",34,"CFU/100 mL","e",2,"CFU/100 mL","<",2,"CFU/100 mL",
"201511COLISBOO.csv","2015DEC10132138","1511209727","I24",  32.55667,-117.14500,"20151120",1128,2,"m","<",20,"CFU/100 mL","<",2,"CFU/100 mL","<",2,"CFU/100 mL",
"201511COLISBOO.csv","2015DEC10132138","1511209728","I24",  32.55667,-117.14500,"20151120",1128,6,"m","<",20,"CFU/100 mL","<",2,"CFU/100 mL","<",2,"CFU/100 mL",
"201511COLISBOO.csv","2015DEC10132138","1511209729","I24",  32.55667,-117.14500,"20151120",1128,11,"m","e",20,"CFU/100 mL","e",4,"CFU/100 mL","<",2,"CFU/100 mL",
"201511COLISBOO.csv","2015DEC10132138","1511209730","I25",  32.56117,-117.14800,"20151120",1141,2,"m","<",20,"CFU/100 mL","<",2,"CFU/100 mL","<",2,"CFU/100 mL",
"201511COLISBOO.csv","2015DEC10132138","1511209731","I25",  32.56117,-117.14800,"20151120",1141,6,"m","<",20,"CFU/100 mL","<",2,"CFU/100 mL","<",2,"CFU/100 mL",